GW0571 Weather Reports


Display with metric or nautical units.
time (UTC)temp
F
wind
direction
speed
MPH
gust
MPH
rain 1hr
in
rain 24hr
in
rain mn
in
humidity
%
barometer
mb
20260506164954 55 252 1.0 6.0 0.02 0.27 0.27 96 1006.3
20260506164450 55 238 3.0 5.0 0.02 0.26 0.26 96 1006.2
20260506163948 55 163 5.0 9.0 0.00 0.26 0.26 96 1006.2
20260506163443 55 180 2.0 5.0 0.02 0.26 0.26 96 1006.0
20260506162938 55 127 1.0 7.0 0.02 0.26 0.26 96 1006.1
20260506162436 55 256 2.0 8.0 0.02 0.26 0.26 96 1006.2
20260506161928 55 205 2.0 7.0 0.05 0.26 0.26 96 1006.0
20260506161426 55 194 3.0 8.0 0.05 0.25 0.25 96 1005.9
20260506160923 55 218 4.0 6.0 0.05 0.25 0.25 96 1005.9
20260506160420 55 143 4.0 7.0 0.02 0.24 0.24 96 1006.1
20260506155917 55 276 2.0 5.0 0.02 0.24 0.24 96 1006.2
20260506155414 55 135 3.0 5.0 0.05 0.24 0.24 96 1006.1
20260506153536 55 144 0.0 7.0 0.02 0.22 0.22 96 1006.3
20260506153034 55 141 4.0 5.0 0.05 0.22 0.22 96 1006.3
20260506152531 55 115 2.0 5.0 0.05 0.22 0.22 96 1006.3
20260506152029 55 123 3.0 5.0 0.05 0.21 0.21 96 1006.2
20260506151526 55 125 2.0 7.0 0.05 0.21 0.21 96 1006.3
20260506151024 55 235 3.0 6.0 0.02 0.20 0.20 96 1006.4
20260506150520 55 219 2.0 4.0 0.05 0.20 0.20 96 1006.3
20260506150017 55 149 2.0 5.0 0.02 0.20 0.20 96 1006.1
20260506145513 55 145 4.0 6.0 0.05 0.19 0.19 96 1006.2
20260506145011 55 186 4.0 6.0 0.02 0.19 0.19 96 1006.2
20260506144507 55 143 6.0 10.0 0.02 0.18 0.18 96 1006.0
20260506144005 55 206 2.0 5.0 0.05 0.18 0.18 96 1005.9
20260506143502 55 175 2.0 5.0 0.05 0.18 0.18 96 1006.0
20260506143001 56 197 2.0 5.0 0.05 0.18 0.18 96 1006.0
20260506142458 56 106 4.0 5.0 0.05 0.17 0.17 96 1006.2
20260506141956 55 188 2.0 3.0 0.07 0.17 0.17 96 1006.3
20260506141453 55 179 1.0 7.0 0.05 0.16 0.16 96 1006.3
20260506140952 55 180 2.0 8.0 0.05 0.16 0.16 96 1006.1
20260506140448 55 169 2.0 7.0 0.07 0.15 0.15 96 1006.2
20260506135945 55 154 2.0 5.0 0.07 0.15 0.15 96 1006.1
20260506135443 55 176 1.0 4.0 0.07 0.15 0.15 96 1006.3
20260506134938 54 157 0.0 3.0 0.05 0.14 0.14 96 1006.4
20260506134435 54 167 2.0 5.0 0.07 0.13 0.13 96 1006.4
20260506133932 54 148 5.0 11.0 0.07 0.13 0.13 96 1006.5
20260506133429 53 116 0.0 5.0 0.05 0.12 0.12 96 1006.7
20260506132926 53 84 1.0 3.0 0.05 0.12 0.12 96 1006.7
20260506132422 53 242 2.0 3.0 0.02 0.11 0.11 96 1007.0
20260506131920 53 191 1.0 4.0 0.05 0.11 0.11 96 1007.0
20260506131416 53 159 1.0 3.0 0.05 0.11 0.11 96 1007.1
20260506130914 53 125 3.0 8.0 0.05 0.10 0.10 96 1007.1
20260506130410 53 139 1.0 5.0 0.05 0.09 0.09 96 1007.3
20260506125908 53 124 3.0 3.0 0.05 0.09 0.09 96 1007.3
20260506125406 53 165 0.0 7.0 0.05 0.09 0.09 96 1007.3
20260506124904 53 140 0.0 4.0 0.05 0.08 0.08 96 1007.2
20260506124401 53 206 1.0 2.0 0.05 0.08 0.08 96 1007.2
20260506123859 53 175 1.0 3.0 0.05 0.07 0.07 96 1007.1
20260506123357 53 211 2.0 4.0 0.05 0.07 0.07 96 1007.0
20260506122854 53 166 0.0 2.0 0.02 0.06 0.06 96 1007.0
20260506122350 53 204 0.0 3.0 0.05 0.06 0.06 96 1007.1
20260506121849 53 106 0.0 3.0 0.02 0.06 0.06 96 1006.6
20260506121346 52 79 1.0 3.0 0.02 0.06 0.06 96 1006.5
20260506120842 52 181 2.0 3.0 0.02 0.06 0.06 96 1006.5
20260506120340 51 113 0.0 3.0 0.00 0.05 0.05 96 1006.4
20260506115837 51 112 1.0 2.0 0.02 0.05 0.05 96 1006.4
20260506115336 51 81 1.0 3.0 0.05 0.05 0.05 96 1006.6
20260506114833 51 113 2.0 3.0 0.02 0.05 0.05 96 1007.1
20260506114331 51 106 2.0 2.0 0.02 0.04 0.04 96 1007.3
20260506113829 51 133 1.0 2.0 0.05 0.04 0.04 96 1007.2
20260506113326 50 100 1.0 2.0 0.00 0.04 0.04 96 1007.2
20260506112823 50 50 2.0 2.0 0.02 0.04 0.04 96 1007.2
20260506112320 50 51 1.0 2.0 0.02 0.04 0.04 96 1007.3
20260506111817 50 49 2.0 3.0 0.00 0.03 0.03 96 1007.3
20260506111315 50 78 1.0 2.0 0.00 0.03 0.03 96 1007.3
20260506110813 50 47 2.0 2.0 0.00 0.03 0.03 96 1007.4
20260506110310 50 11 2.0 3.0 0.00 0.03 0.03 96 1007.5
20260506105806 50 26 2.0 2.0 0.00 0.03 0.03 96 1007.3
20260506105305 50 57 1.0 2.0 0.00 0.03 0.03 96 1007.4
20260506104801 51 60 1.0 2.0 0.02 0.03 0.03 96 1007.1
20260506104258 50 99 2.0 2.0 0.02 0.03 0.03 96 1007.1
20260506103755 50 56 0.0 1.0 0.00 0.03 0.03 96 1007.3
20260506103253 50 51 0.0 2.0 0.02 0.03 0.03 96 1007.2
20260506102750 50 38 0.0 1.0 0.02 0.03 0.03 96 1007.1
20260506102248 50 50 1.0 2.0 0.02 0.02 0.02 96 1007.1
20260506101745 50 115 1.0 2.0 0.02 0.02 0.02 96 1006.9
20260506101241 50 75 1.0 3.0 0.02 0.02 0.02 96 1006.9
20260506100739 50 47 0.0 2.0 0.02 0.02 0.02 96 1007.0
20260506100237 49 55 1.0 2.0 0.00 0.02 0.02 96 1006.7
20260506095736 49 70 1.0 2.0 0.00 0.02 0.02 96 1006.9
20260506095232 49 89 1.0 2.0 0.00 0.02 0.02 96 1006.5
20260506094729 49 60 1.0 2.0 0.02 0.02 0.02 96 1006.7
20260506094227 50 72 0.0 2.0 0.02 0.02 0.02 96 1006.9
20260506093726 50 66 0.0 3.0 0.00 0.01 0.01 96 1006.7
20260506093222 50 84 1.0 2.0 0.00 0.01 0.01 96 1006.9
20260506092720 50 69 0.0 2.0 0.00 0.01 0.01 96 1006.7
20260506092217 50 111 2.0 3.0 0.02 0.01 0.01 95 1006.9
20260506091715 49 115 2.0 3.0 0.02 0.01 0.01 95 1006.9
20260506091212 49 97 2.0 2.0 0.00 0.01 0.01 95 1007.1
20260506090710 49 76 0.0 1.0 0.02 0.01 0.01 95 1007.0
20260506090206 49 95 2.0 2.0 0.02 0.01 0.01 95 1007.1
20260506085704 49 95 1.0 2.0 0.00 0.00 0.00 94 1007.4
20260506085159 50 48 1.0 1.0 0.00 0.00 0.00 94 1007.2
20260506084656 50 88 2.0 2.0 0.02 0.00 0.00 94 1007.2
20260506084153 50 110 0.0 0.0 0.02 0.00 0.00 93 1007.4
20260506083649 50 232 1.0 2.0 0.00 0.00 0.00 93 1007.7
20260506083148 50 106 2.0 3.0 0.00 0.00 0.00 92 1007.4
20260506082644 50 152 2.0 3.0 0.00 0.00 0.00 92 1007.5
20260506082139 50 97 2.0 2.0 0.00 0.00 0.00 92 1007.4
20260506081638 50 66 0.0 3.0 0.00 0.00 0.00 92 1007.4
20260506081135 50 115 0.0 3.0 0.00 0.00 0.00 92 1007.6
20260506080633 50 89 0.0 2.0 0.00 0.00 0.00 92 1007.4
20260506080129 50 221 2.0 2.0 0.00 0.00 0.00 91 1007.3
20260506073113 50 32 0.0 1.0 0.00 0.00 0.00 91 1007.3
20260506072609 50 25 1.0 2.0 0.00 0.00 0.00 91 1007.7
20260506072108 50 66 0.0 1.0 0.00 0.00 0.00 91 1007.6
20260506071605 50 16 0.0 2.0 0.00 0.00 0.00 91 1007.6
20260506071103 50 57 1.0 2.0 0.00 0.00 0.00 91 1007.5
20260506070559 50 19 0.0 3.0 0.00 0.00 0.00 91 1007.4
20260506062034 51 73 2.0 3.0 0.00 0.00 0.00 88 1008.1
20260506061529 51 228 6.0 7.0 0.00 0.00 0.00 88 1008.1
20260506061027 51 60 2.0 2.0 0.00 0.00 0.00 88 1008.2
20260506060525 51 184 2.0 3.0 0.00 0.00 0.00 87 1008.2
20260506050954 51 126 0.0 3.0 0.00 0.00 0.00 89 1008.9
20260506050452 51 86 1.0 3.0 0.00 0.00 0.00 90 1009.2
20260506044942 51 96 1.0 3.0 0.00 0.00 0.00 90 1009.2
20260506044441 51 336 0.0 3.0 0.00 0.00 0.00 90 1009.2
20260506043937 51 89 0.0 2.0 0.00 0.00 0.00 89 1009.5
20260506043434 51 30 1.0 2.0 0.00 0.00 0.00 89 1009.5
20260506042932 51 6 0.0 2.0 0.00 0.00 0.00 90 1009.1
20260506042431 51 19 0.0 2.0 0.00 0.00 0.00 90 1009.0
20260506041929 51 86 2.0 3.0 0.00 0.00 0.00 90 1009.1
20260506041426 51 93 2.0 3.0 0.00 0.00 0.00 89
20260506040923 51 89 0.0 3.0 0.00 0.00 0.00 89
20260506040421 51 80 2.0 3.0 0.00 0.00 0.00 89
20260506035917 51 72 0.0 3.0 0.00 0.04 0.04 89
20260506035415 51 88 2.0 3.0 0.00 0.04 0.04 89
20260506034911 51 29 0.0 3.0 0.00 0.04 0.04 90
20260506034408 51 83 1.0 2.0 0.00 0.04 0.04 90
20260506033905 51 89 2.0 3.0 0.00 0.04 0.04 90
20260506033403 51 107 1.0 2.0 0.00 0.04 0.04 89
20260506032859 51 20 0.0 4.0 0.00 0.04 0.04 89
20260506032356 52 12 1.0 1.0 0.00 0.04 0.04 89
20260506031853 52 269 0.0 3.0 0.00 0.04 0.04 88
20260506031350 52 53 3.0 3.0 0.00 0.04 0.04 88
20260506030848 52 252 0.0 3.0 0.00 0.04 0.04 87
20260506030346 52 314 0.0 2.0 0.00 0.04 0.04 87
20260506025842 53 10 2.0 5.0 0.00 0.04 0.04 86
20260506025338 53 3 2.0 6.0 0.00 0.04 0.04 85
20260506024836 53 343 3.0 5.0 0.00 0.04 0.04 85
20260506024333 53 37 2.0 7.0 0.00 0.04 0.04 85
20260506023829 54 353 2.0 10.0 0.00 0.04 0.04 84
20260506023325 54 6 3.0 6.0 0.00 0.04 0.04 84
20260506022822 54 6 2.0 8.0 0.00 0.04 0.04 84
20260506022320 54 13 3.0 9.0 0.00 0.04 0.04 83
20260506021818 55 332 4.0 9.0 0.00 0.04 0.04 83
20260506021315 55 342 4.0 8.0 0.00 0.04 0.04 84
20260506020811 55 339 3.0 6.0 0.00 0.04 0.04 83
20260506020309 56 345 2.0 6.0 0.00 0.04 0.04 85
20260506015807 57 324 3.0 6.0 0.00 0.04 0.04 85
20260506015306 57 320 2.0 5.0 0.00 0.04 0.04 85
20260506014801 58 356 5.0 9.0 0.00 0.04 0.04 88 1008.4
20260506014257 58 332 2.0 3.0 0.00 0.04 0.04 88 1008.4
20260506013754 58 338 0.0 0.0 0.00 0.04 0.04 88 1008.4
20260506013251 58 313 0.0 3.0 0.00 0.04 0.04 87 1008.4
20260506012748 59 332 0.0 5.0 0.00 0.04 0.04 86 1008.4
20260506012245 59 335 2.0 6.0 0.00 0.04 0.04 86 1008.4
20260506011742 59 3 3.0 5.0 0.00 0.04 0.04 85 1008.4
20260506011238 59 42 3.0 6.0 0.00 0.04 0.04 86 1008.4
20260506010737 60 356 0.0 5.0 0.00 0.04 0.04 85 1008.4
20260506010234 60 93 2.0 5.0 0.00 0.04 0.04 85 1008.4
20260506005731 60 315 2.0 4.0 0.00 0.04 0.04 85 1008.4
20260506005228 60 318 1.0 5.0 0.00 0.04 0.04 86 1008.2
20260506004723 60 298 2.0 3.0 0.00 0.04 0.04 89 1008.4
20260506004221 59 340 1.0 3.0 0.00 0.04 0.04 91 1007.9
20260506003717 59 323 0.0 2.0 0.00 0.04 0.04 92 1008.0
20260506003214 59 8 2.0 2.0 0.00 0.04 0.04 91 1007.8
20260506002709 59 37 0.0 2.0 0.00 0.04 0.04 90 1007.9
20260506002206 59 120 1.0 2.0 0.00 0.04 0.04 91 1007.8
20260506001702 59 97 1.0 1.0 0.00 0.04 0.04 91 1007.5
20260506001200 59 37 0.0 1.0 0.00 0.04 0.04 90 1007.7
20260506000656 60 37 0.0 1.0 0.00 0.04 0.04 89 1007.7
20260506000154 60 129 0.0 1.0 0.00 0.04 0.04 87 1007.6
20260505235652 60 135 0.0 2.0 0.00 0.04 0.04 87 1007.5
20260505235149 61 92 1.0 2.0 0.00 0.04 0.04 86 1007.5
20260505234645 61 124 2.0 2.0 0.00 0.04 0.04 85 1007.5
20260505234142 61 114 1.0 3.0 0.00 0.04 0.04 86 1007.6
20260505233639 61 111 1.0 2.0 0.00 0.04 0.04 88 1007.5
20260505233137 61 32 0.0 0.0 0.00 0.04 0.04 87 1007.6
20260505232634 61 47 0.0 1.0 0.00 0.04 0.04 86 1007.7
20260505232132 62 246 0.0 2.0 0.00 0.04 0.04 85 1007.6
20260505231628 62 157 0.0 2.0 0.00 0.04 0.04 85 1007.7
20260505231127 62 134 0.0 2.0 0.00 0.04 0.04 85 1007.7
20260505230625 62 130 2.0 2.0 0.00 0.04 0.04 83 1007.4
20260505230121 62 149 0.0 2.0 0.00 0.04 0.04 83 1007.4
20260505225617 61 151 2.0 2.0 0.00 0.04 0.04 86 1007.4
20260505225114 61 124 2.0 2.0 0.00 0.04 0.04 87 1007.5
20260505224610 62 0 1.0 2.0 0.00 0.04 0.04 87 1007.7
20260505224108 62 231 0.0 3.0 0.00 0.04 0.04 84 1007.6
20260505223605 62 255 2.0 5.0 0.02 0.04 0.04 83 1007.4
20260505223101 62 254 1.0 5.0 0.05 0.04 0.04 83 1007.4
20260505222558 63 114 1.0 8.0 0.02 0.04 0.04 81 1007.3
20260505222054 64 132 2.0 5.0 0.00 0.03 0.03 76 1007.3
20260505221551 64 143 3.0 6.0 0.00 0.03 0.03 75 1007.6
20260505221047 64 176 4.0 6.0 0.00 0.03 0.03 77 1007.5
20260505220545 65 121 2.0 4.0 0.00 0.03 0.03 75 1006.7
20260505220043 65 146 0.0 2.0 0.00 0.03 0.03 75 1006.6
20260505215540 65 108 0.0 4.0 0.00 0.03 0.03 75 1007.1
20260505215038 65 160 2.0 3.0 0.00 0.03 0.03 74 1006.9
20260505214536 66 155 0.0 2.0 0.00 0.03 0.03 72 1006.7
20260505214032 66 256 3.0 5.0 0.00 0.03 0.03 72 1006.9
20260505213530 66 105 0.0 5.0 0.00 0.03 0.03 70 1006.4
20260505213026 66 143 2.0 3.0 0.00 0.03 0.03 72 1006.5
20260505212523 67 186 2.0 5.0 0.00 0.03 0.03 72 1006.6
20260505212020 67 254 2.0 3.0 0.00 0.03 0.03 71 1006.5
20260505211517 66 134 2.0 4.0 0.00 0.03 0.03 73 1006.4
20260505211014 66 230 2.0 5.0 0.00 0.03 0.03 76 1006.4
20260505210510 66 229 2.0 4.0 0.00 0.03 0.03 74 1006.4
20260505210008 64 169 1.0 6.0 0.00 0.03 0.03 74 1006.4
20260505205506 64 261 3.0 5.0 0.00 0.03 0.03 78 1006.6
20260505205003 64 132 5.0 7.0 0.00 0.03 0.03 79 1006.7
20260505204500 63 232 2.0 4.0 0.00 0.03 0.03 80 1006.5
20260505203957 62 104 2.0 4.0 0.00 0.03 0.03 84 1006.5
20260505203453 62 86 2.0 3.0 0.00 0.03 0.03 85 1006.9
20260505202950 61 110 1.0 2.0 0.00 0.03 0.03 90 1006.7
20260505202447 60 355 2.0 2.0 0.00 0.03 0.03 91 1007.0
20260505201943 59 309 0.0 2.0 0.00 0.03 0.03 91 1007.1
20260505201440 59 22 3.0 5.0 0.00 0.03 0.03 91 1006.9
20260505200938 60 313 1.0 5.0 0.00 0.03 0.03 90 1007.0
20260505200435 59 315 4.0 11.0 0.02 0.03 0.03 89 1007.2
20260505195930 59 326 3.0 8.0 0.02 0.03 0.03 90 1007.5
20260505195428 59 328 3.0 10.0 0.00 0.03 0.03 88 1007.5
20260505194925 59 319 3.0 14.0 0.09 0.03 0.03 89 1007.9
20260505194423 60 242 11.0 18.0 0.09 0.03 0.03 87 1008.2
20260505193922 64 307 10.0 29.0 0.00 0.01 0.01 76 1007.5
20260505193420 73 234 11.0 11.0 0.00 0.01 0.01 41 1006.0
20260505192918 74 218 2.0 16.0 0.00 0.01 0.01 38 1005.5
20260505192416 74 205 9.0 26.0 0.00 0.01 0.01 37 1005.3
20260505191913 74 208 14.0 20.0 0.00 0.01 0.01 37 1005.2
20260505191412 75 167 3.0 21.0 0.00 0.01 0.01 37 1004.9
20260505190908 77 210 2.0 12.0 0.00 0.01 0.01 38 1005.2
20260505190404 77 214 3.0 11.0 0.00 0.01 0.01 39 1005.1
20260505185859 76 161 3.0 13.0 0.00 0.01 0.01 40 1005.2
20260505185356 75 223 3.0 15.0 0.00 0.01 0.01 45 1005.3
20260505184852 75 232 2.0 12.0 0.00 0.01 0.01 45 1005.1
20260505184349 75 162 3.0 13.0 0.00 0.01 0.01 45 1005.4
20260505183846 75 221 7.0 21.0 0.00 0.01 0.01 46 1005.4
20260505183343 75 180 4.0 16.0 0.00 0.01 0.01 45 1005.4
20260505182840 75 210 4.0 15.0 0.00 0.01 0.01 45 1005.7
20260505182337 74 234 5.0 19.0 0.00 0.01 0.01 45 1005.8
20260505181834 75 227 7.0 15.0 0.00 0.01 0.01 45 1005.9
20260505181331 75 159 6.0 15.0 0.00 0.01 0.01 46 1006.1
20260505180827 74 147 11.0 15.0 0.00 0.01 0.01 46 1006.1
20260505180324 75 167 5.0 11.0 0.00 0.01 0.01 44 1006.2
20260505175820 75 235 7.0 11.0 0.00 0.01 0.01 45 1006.2
20260505175317 75 244 12.0 14.0 0.00 0.01 0.01 46 1006.5
20260505174813 75 257 8.0 11.0 0.00 0.01 0.01 46 1006.3
20260505174311 74 252 9.0 9.0 0.00 0.01 0.01 47 1006.4
20260505173806 74 165 2.0 13.0 0.00 0.01 0.01 47 1006.4
20260505173303 73 236 9.0 13.0 0.00 0.01 0.01 47 1006.5
20260505172800 73 167 0.0 15.0 0.00 0.01 0.01 48 1006.4
20260505172257 73 127 5.0 16.0 0.00 0.01 0.01 46 1006.4
20260505171752 73 190 2.0 7.0 0.00 0.01 0.01 48 1006.6
20260505171249 73 241 11.0 12.0 0.00 0.01 0.01 48 1006.5
20260505170746 73 211 3.0 11.0 0.00 0.01 0.01 48 1006.4
20260505170243 73 180 5.0 16.0 0.00 0.01 0.01 47 1006.3
20260505165738 73 89 2.0 16.0 0.00 0.01 0.01 47 1006.1
20260505165234 74 211 7.0 13.0 0.00 0.01 0.01 45 1005.9